SCP
0 0 0 0 0 0 0 0 0 0 0 0 0 0 0 0 0 0 0 0 0 0 0 0 0 0 0 0 0 0 0 0 0 0 0 0 0 0 0 0 0 0 0
0 0 0 0 0 0 0 0 0 0 0 0 0 0 0 0 0 0 0 0 0 0 0 0 0 0 0 0 0 0 0 0 0 0 0 0 0 0 0 0 0 0 0
0 0 0 0 0 0 0 0 0 0 0 0 0 0 0 0 0 0 0 0 0 0 0 0 0 0 0 0 0 0 0 0 0 0 0 0 0 0 0 0 0 0 0
0 0 0 0 0 0 0 0 0 0 0 0 0 0 0 0 0 0 0 0 0 0 0 0 0 0 0 0 0 0 0 0 0 0 0 0 0 0 0 0 0 0 0
0 0 0 0 0 0 0 0 0 0 0 0 0 0 0 0 0 0 0 0 0 0 0 0 0 0 0 0 0 0 0 0 0 0 0 0 0 0 0 0 0 0 0
0 0 0 0 0 0 0 0 0 0 0 0 0 0 0 0 0 0 0 0 0 0 0 0 0 0 0 0 0 0 0 0 0 0 0 0 0 0 0 0 0 0 0
0 0 0 0 0 0 0 0 0 0 0 0 0 0 0 0 0 0 0 0 0 0 0 0 0 0 0 0 0 0 0 0 0 0 0 0 0 0 0 0 0 0 0
0 0 0 0 0 0 1 1 0 0 0 0 0 0 0 0 0 0 0 0 0 0 0 0 0 0 0 0 0 0 0 0 0 0 0 0 0 0 0 0 0 0 0
0 0 0 0 0 0 1 1 0 0 0 0 0 0 0 0 0 0 0 0 0 0 0 0 0 0 0 0 0 0 0 0 0 0 0 0 0 0 0 0 0 0 0
1 1 0 0 0 1 1 1 0 0 0 0 0 0 0 0 0 0 0 0 0 0 0 0 0 0 0 0 0 0 0 0 0 0 0 0 0 0 0 0 0 0 0
1 1 1 0 0 0 0 0 0 0 0 0 0 0 0 0 0 0 0 0 0 0 0 0 0 0 0 0 0 0 0 0 0 0 0 0 0 0 0 0 0 0 0
1 0 1 0 0 0 0 0 0 0 0 0 0 0 0 0 0 0 0 0 0 0 0 0 0 0 0 0 0 0 0 0 0 0 0 0 0 0 0 0 0 0 0
0 0 0 0 0 0 0 0 0 0 0 0 0 0 0 0 0 0 0 0 0 0 0 0 0 0 0 0 0 0 0 0 0 0 0 0 0 0 0 0 0 0 0
1 1 0 0 0 0 0 0 0 0 0 0 0 0 0 0 0 0 0 0 0 0 0 0 0 0 0 0 0 0 0 0 0 0 0 0 0 0 0 0 0 0 0
1 1 0 0 0 0 0 0 0 0 0 0 0 0 0 0 1 1 0 0 0 0 0 0 0 0 0 0 0 0 0 0 0 0 0 0 0 0 0 0 0 0 0
1 1 1 1 1 0 0 0 0 0 0 0 0 0 0 1 1 1 0 0 0 0 0 0 0 0 0 0 0 0 0 0 0 0 0 0 0 0 0 0 0 0 0
1 1 1 1 1 1 0 0 0 0 0 0 0 0 0 0 0 0 0 0 0 0 0 0 0 0 0 0 0 0 0 0 0 0 0 0 0 0 0 0 0 0 0
1 1 1 1 1 1 0 0 0 0 0 0 0 0 0 0 0 0 0 0 0 0 0 0 0 0 0 0 0 0 0 0 0 0 0 0 0 0 0 0 0 0 0
2 1 1 1 1 1 1 1 0 0 0 0 0 0 0 0 0 0 0 0 0 0 0 0 0 0 0 0 0 0 0 0 0 0 0 0 0 0 0 0 0 0 0
2 2 1 1 1 1 1 1 1 0 0 0 0 0 0 0 0 0 0 0 0 0 0 0 0 0 0 0 0 0 0 0 0 0 0 0 0 0 0 0 0 0 0
2 1 1 1 1 1 1 1 1 1 1 0 0 0 0 0 0 0 0 0 0 0 0 0 0 0 0 0 0 0 0 0 0 0 0 0 0 0 0 0 0 0 0
1 1 1 1 1 1 1 0 0 1 1 0 0 0 0 0 0 0 0 0 0 0 0 0 0 0 0 0 0 0 0 0 0 0 0 0 0 0 0 0 0 0 0
0 0 0 0 0 0 0 0 0 0 0 0 0 0 0 0 0 0 0 0 0 0 0 0 0 0 0 0 0 0 0 0 0 0 0 0 0 0 0 0 0 0 0
0 0 0 0 0 0 0 0 0 0 0 0 0 0 0 0 0 0 0 0 0 0 0 0 0 0 0 0 0 0 0 0 0 0 0 0 0 0 0 0 0 0 0
0 0 0 0 0 0 0 0 0 0 0 0 0 0 0 0 0 0 0 0 0 0 0 0 0 0 0 0 0 0 0 0 0 0 0 0 0 0 0 0 0 0 0
0 0 0 0 0 0 0 0 0 0 0 0 0 0 0 0 0 0 0 0 0 0 0 0 0 0 0 0 0 0 0 0 0 0 0 0 0 0 0 0 0 0 0
Wind_Speed
6 6 5 4 5 4 5 5 5 5 5 5 5 5 6 6 6 5 3 4 7 8 9 9 9 9 9 8 7 7 7 7 5 5 5 6 7 7 7 8 8 9 9
7 6 6 6 6 5 5 5 5 5 4 4 5 6 6 6 6 6 5 4 5 6 8 8 8 8 8 8 7 7 7 6 6 5 5 6 6 7 7 7 8 8 9
8 7 6 6 6 6 6 5 6 5 4 4 5 6 5 6 6 6 6 5 4 3 5 6 6 7 7 7 7 7 7 7 6 6 5 5 6 6 7 7 8 8 9
10 8 7 7 7 6 5 5 5 5 5 4 4 4 5 5 6 6 5 5 4 3 2 3 4 5 6 6 7 7 7 7 7 6 5 5 6 6 7 7 8 9 10
11 9 7 7 7 6 6 5 5 5 5 5 4 5 5 5 5 5 5 5 4 4 3 1 2 3 5 5 6 6 6 7 6 6 5 5 6 7 7 8 8 9 10
11 10 8 8 7 6 6 6 7 6 5 4 4 5 5 5 5 4 4 4 3 3 3 3 2 1 2 3 4 5 6 6 6 6 6 6 6 6 7 8 9 9 10
10 10 8 8 7 7 8 8 6 6 5 4 4 4 5 5 4 3 3 2 2 2 2 2 2 2 1 1 3 5 6 6 6 6 6 7 7 7 8 9 9 10 10
11 9 10 8 8 7 8 8 7 5 4 4 4 4 4 3 3 2 2 1 1 1 1 1 1 2 2 1 2 4 5 6 6 6 7 7 7 8 8 9 9 10 10
11 10 10 9 8 8 7 8 8 8 6 6 6 5 4 3 2 2 2 1 1 1 1 0 1 1 1 1 2 2 4 5 6 6 7 7 7 7 8 9 10 10 10
10 10 10 10 9 7 8 8 8 7 8 6 5 6 6 4 4 3 2 2 1 1 1 1 1 1 1 1 1 3 3 4 5 6 6 7 7 8 8 9 9 10 10
9 9 9 9 8 7 8 8 7 8 7 7 5 4 6 6 7 6 5 3 2 1 2 2 2 1 1 1 1 3 3 3 4 5 6 6 7 7 8 9 10 10 10
6 8 8 8 8 7 8 8 7 8 7 8 6 5 5 5 5 6 6 5 4 2 2 2 2 2 2 2 2 3 3 3 4 5 5 6 6 7 8 9 9 10 10
5 7 7 7 7 7 7 7 6 7 7 8 7 6 6 6 5 5 6 5 5 4 3 2 2 2 2 2 2 3 2 3 4 5 5 5 6 6 7 8 9 9 10
5 5 6 6 6 6 6 6 6 6 6 7 7 7 5 5 5 5 5 5 5 5 4 4 2 1 2 2 3 3 3 3 4 5 5 5 6 6 7 8 8 9 10
3 4 5 5 5 5 5 5 4 5 5 5 5 6 5 4 4 4 4 4 5 6 5 4 2 1 1 2 3 3 3 3 4 4 5 5 6 6 7 8 8 9 10
3 4 4 4 4 4 4 4 4 4 4 3 3 4 4 3 3 3 3 4 4 5 5 2 2 2 1 1 2 3 3 3 3 4 5 5 6 6 7 8 8 9 10
3 3 4 4 4 4 4 4 4 3 4 3 3 3 3 3 3 2 2 3 3 3 5 3 2 2 2 2 2 3 3 3 3 4 5 5 6 7 7 8 9 9 10
2 3 3 3 3 3 3 4 4 3 3 3 3 2 2 2 2 2 2 2 2 2 3 5 3 2 2 2 2 3 3 3 3 4 6 6 6 7 8 8 8 9 10
1 2 2 2 2 2 2 3 3 3 3 3 2 3 2 2 2 1 1 1 1 1 2 3 3 1 1 1 2 2 3 3 3 3 6 6 6 7 7 7 8 9 9
1 1 1 2 2 2 2 2 2 2 2 2 1 1 1 1 2 1 1 1 0 0 0 1 1 1 1 2 2 2 3 3 3 3 4 5 6 7 7 7 8 8 9
1 1 1 1 2 2 2 3 2 3 3 2 2 1 1 1 1 1 0 0 0 1 1 1 1 1 1 2 2 2 3 3 3 2 4 4 4 4 5 6 7 9 10
1 1 1 1 1 1 4 5 3 3 2 3 2 2 2 2 3 3 3 2 1 1 1 1 1 1 2 2 2 2 2 3 3 2 4 4 3 4 5 5 8 10 10
1 2 1 1 1 2 4 5 5 3 3 2 2 2 2 2 2 3 5 5 5 4 1 1 1 2 2 2 2 2 2 3 4 3 4 4 4 5 5 6 9 9 10
1 1 1 1 2 2 4 5 5 4 3 3 3 3 3 2 2 3 3 3 3 4 3 2 1 2 2 2 2 3 3 3 3 2 3 4 4 5 6 6 8 9 10
1 1 1 1 2 2 5 5 5 3 3 3 3 2 2 2 4 4 3 3 3 3 5 6 5 4 5 5 3 1 1 1 2 2 2 3 4 6 6 5 5 9 11
1 1 1 1 1 2 4 5 5 3 4 3 3 2 3 3 4 4 2 2 2 1 2 3 4 4 4 4 5 3 1 2 2 2 2 3 3 4 5 4 5 6 6
Wind_Direction
209 209 213 215 220 221 224 231 240 248 255 261 263 268 274 278 279 277 275 253 266 278 284 289 292 294 296 297 298 295 296 299 296 296 296 294 297 296 293 292 290 289 289
215 214 215 217 221 222 228 234 242 247 254 260 267 269 273 276 274 276 279 273 247 263 276 283 290 295 298 296 297 300 300 301 302 302 301 297 296 295 294 293 293 292 292
218 217 221 221 222 222 226 234 240 243 251 254 263 268 270 272 275 275 275 277 272 245 256 274 286 295 301 299 302 305 305 306 307 309 309 307 304 303 301 299 297 296 295
219 219 224 227 224 221 222 229 233 237 243 251 260 267 267 269 269 269 268 266 269 272 250 252 276 292 298 301 303 304 306 309 311 314 317 317 314 312 310 307 303 300 299
218 219 223 227 223 222 224 223 227 232 245 248 256 267 271 268 268 266 264 264 260 261 268 239 241 283 295 299 300 303 308 312 315 322 324 321 318 317 316 314 312 309 305
214 218 223 224 220 222 224 221 227 229 242 251 261 269 271 267 263 263 262 259 256 256 263 273 259 234 274 289 300 302 306 310 315 320 321 318 315 315 316 317 316 314 311
213 215 218 219 215 221 225 224 226 229 232 231 251 267 264 255 251 253 252 256 255 256 265 275 277 284 286 302 301 305 308 310 312 315 315 314 313 312 314 316 316 316 317
216 215 218 215 212 218 223 221 218 224 225 215 232 258 267 248 213 229 236 250 260 241 251 267 283 294 301 305 356 330 319 317 315 318 320 319 319 319 320 322 323 322 320
215 214 217 217 214 215 219 218 215 222 227 221 224 237 252 257 285 205 218 229 224 212 230 263 304 315 314 307 316 353 343 329 328 328 327 324 323 324 323 323 323 325 324
214 214 216 217 217 216 220 218 216 220 226 229 223 232 245 261 262 263 204 202 222 251 259 280 281 308 307 298 341 1 358 348 339 334 333 331 329 328 326 326 326 325 323
212 213 213 214 216 217 221 220 219 220 222 229 226 224 235 245 247 254 262 254 238 233 256 274 283 298 297 290 308 345 352 347 340 336 332 329 326 325 325 326 327 326 325
208 212 211 213 215 217 220 221 220 221 222 226 228 224 223 227 230 237 252 262 263 261 258 266 280 292 296 292 320 345 338 339 335 331 328 326 326 325 323 325 324 324 324
211 211 209 213 215 217 218 218 216 219 222 224 225 225 226 233 238 237 245 255 262 263 252 248 259 272 292 296 310 327 320 327 329 328 329 328 328 328 327 325 324 324 323
216 210 206 210 214 215 215 213 212 216 219 220 224 225 227 231 233 233 237 245 257 256 245 244 238 249 284 292 325 323 317 336 330 329 329 328 328 330 327 323 322 323 323
214 209 204 205 208 207 208 205 208 214 217 220 224 227 229 233 235 237 238 237 244 255 255 248 248 248 282 295 334 307 312 346 330 329 335 334 331 329 326 325 324 324 322
212 204 204 204 205 204 203 201 201 207 210 219 224 226 230 233 235 237 237 240 243 252 257 258 266 275 287 314 336 307 319 342 338 339 341 336 331 332 331 329 325 324 323
211 206 203 201 201 201 199 196 198 194 200 210 214 217 229 236 239 242 242 241 243 245 254 265 264 268 280 299 316 319 321 325 335 350 342 335 332 332 331 329 328 328 328
214 210 200 196 197 196 195 192 193 194 195 199 210 214 230 238 242 251 246 245 252 256 249 258 262 256 277 304 316 322 328 331 321 347 343 339 340 342 338 336 334 334 331
205 194 179 176 178 180 178 179 184 189 189 190 194 203 216 214 234 249 256 261 276 286 266 250 264 268 291 338 327 327 329 327 324 337 336 333 335 333 331 333 335 333 332
152 159 162 168 168 164 162 154 156 151 152 143 144 168 206 220 222 232 246 288 319 323 303 248 264 297 319 346 328 322 319 327 316 324 330 328 325 324 321 324 326 327 328
93 127 146 162 164 159 149 141 142 147 149 137 120 101 87 73 60 54 51 295 271 238 230 241 271 309 328 342 326 325 308 318 310 325 321 315 316 314 314 316 320 323 324
83 100 123 145 139 127 124 126 131 141 146 145 135 109 90 86 82 80 71 61 47 222 226 236 257 272 305 319 329 315 319 317 302 336 317 302 307 304 308 311 318 320 321
82 89 96 108 114 121 123 123 118 123 126 119 111 106 88 68 73 78 72 67 52 45 29 257 243 275 293 306 309 304 305 298 293 324 313 295 306 301 306 305 311 313 318
120 114 106 102 103 114 122 121 116 110 108 105 105 113 116 100 81 96 86 69 50 37 36 30 38 360 354 341 315 296 297 310 313 324 328 294 305 304 307 298 302 310 317
141 110 106 106 109 118 128 130 123 115 112 105 98 101 118 116 107 103 102 97 77 53 57 69 65 53 41 24 4 3 352 325 306 312 339 305 304 309 298 288 303 315 317
159 127 111 108 118 128 134 135 130 129 128 121 108 103 106 114 112 105 113 123 111 67 63 57 51 42 31 27 22 9 331 310 309 291 344 318 304 321 301 289 304 309 310